Brevoort Island, Nunavut

8:55 PM ADT on May 27, 2017 (GMT -0300)
Brevoort Island

Weather History for CWOB - July, 2013

Change the Weather History Date:

Monday, July 8, 2013

  Actual Average Record
Temperature  
Mean Temperature 30 °F -  
Max Temperature 32 °F - - ()
Min Temperature 28 °F - - ()
Degree Days  
Heating Degree Days 35    
Moisture  
Dew Point -    
Average Humidity    
Maximum Humidity    
Minimum Humidity    
Precipitation  
Precipitation 0.00 in - - ()
Sea Level Pressure  
Sea Level Pressure 29.70 in    
Wind  
Wind Speed 33 mph ()    
Max Wind Speed 45 mph    
Max Gust Speed 51 mph    
T = Trace of Precipitation, MM = Missing Value Source: Averaged Metar Reports

Daily Weather History Graph

Daily Weather History Graph

Search for Another Location

Airport or City:

Trip Planner

Search our weather history database for the weather conditions in past years. The results will help you decide how hot, cold, wet, or windy it might be!

Date:

Astronomy

Jul. 08, 2013 Rise Set
Actual Time 3:25 AM ADT 11:16 PM ADT
Civil Twilight 1:54 AM ADT 12:49 AM ADT
Nautical Twilight Sun does not set Sun does not set
Astronomical Twilight Sun does not set Sun does not set
Moon 4:39 AM ADT (7/8) 10:15 PM ADT (7/8)
Length of Visible Light 22h 55m
Length of Day
19h 50m
New Moon, 0% of the Moon is Illuminated
Jul 8
New Moon
Jul 16
First Quarter
Jul 22
Full
Jul 29
Last Quarter
Aug 6
New

Hourly Weather History & Observations

Time (ADT) Temp. Windchill Dew Point Humidity Pressure Visibility Wind Dir Wind Speed Gust Speed Precip Events Conditions
12:00 AM 30.2 °F 14.3 °F - N/A% 29.63 in - NNE 34.5 mph 42.6 mph N/A   Clear
12:03 AM 30.2 °F 13.7 °F - N/A% 29.51 in - NNE 38.0 mph - N/A   Clear
12:15 AM 30.2 °F 13.7 °F - N/A% 29.51 in - NNE 38.0 mph 46.0 mph N/A   Clear
12:27 AM 30.2 °F 13.7 °F - N/A% 29.51 in - NNE 38.0 mph - N/A   Clear
12:39 AM 28.4 °F - - N/A% 29.51 in - North - - N/A   Clear
12:51 AM 30.2 °F 13.3 °F - N/A% 29.51 in - NNE 40.3 mph 48.3 mph N/A   Clear
1:00 AM 30.2 °F 13.1 °F - N/A% 29.64 in - NNE 41.4 mph - N/A   Clear
1:03 AM 30.2 °F 13.5 °F - N/A% 29.52 in - NNE 39.1 mph - N/A   Clear
1:15 AM 30.2 °F 13.3 °F - N/A% 29.52 in - NNE 40.3 mph 47.2 mph N/A   Clear
1:27 AM 30.2 °F 12.7 °F - N/A% 29.52 in - NNE 43.7 mph - N/A   Clear
1:39 AM 30.2 °F 13.5 °F - N/A% 29.52 in - NNE 39.1 mph 49.5 mph N/A   Clear
1:51 AM 30.2 °F 13.1 °F - N/A% 29.53 in - NNE 41.4 mph 47.2 mph N/A   Clear
2:00 AM 30.2 °F 13.1 °F - N/A% 29.64 in - NNE 41.4 mph - N/A   Clear
2:03 AM 30.2 °F 12.5 °F - N/A% 29.52 in - NNE 44.9 mph 50.6 mph N/A   Clear
2:15 AM 30.2 °F 13.3 °F - N/A% 29.53 in - NNE 40.3 mph 47.2 mph N/A   Clear
2:27 AM 30.2 °F 13.3 °F - N/A% 29.54 in - NNE 40.3 mph 50.6 mph N/A   Clear
2:39 AM 30.2 °F 14.3 °F - N/A% 29.55 in - NNE 34.5 mph 49.5 mph N/A   Clear
2:51 AM 30.2 °F 14.5 °F - N/A% 29.55 in - NE 33.4 mph 40.3 mph N/A   Clear
3:00 AM 30 °F - - % 29.66 in - NE 35.7 mph - -  
3:00 AM 30.2 °F 13.7 °F - N/A% 29.66 in - NE 38.0 mph 46.0 mph N/A   Clear
3:03 AM 30.2 °F 13.7 °F - N/A% 29.54 in - NE 38.0 mph 46.0 mph N/A   Clear
3:15 AM 30.2 °F 13.9 °F - N/A% 29.55 in - NNE 36.8 mph 44.9 mph N/A   Clear
3:27 AM 30.2 °F 13.7 °F - N/A% 29.55 in - NNE 38.0 mph 43.7 mph N/A   Clear
3:39 AM 30.2 °F 13.5 °F - N/A% 29.55 in - NNE 39.1 mph - N/A   Clear
3:51 AM 30.2 °F 13.9 °F - N/A% 29.56 in - NE 36.8 mph 46.0 mph N/A   Clear
4:00 AM 30.2 °F 13.5 °F - N/A% 29.68 in - NE 39.1 mph - N/A   Clear
4:03 AM 30.2 °F 13.9 °F - N/A% 29.56 in - NNE 36.8 mph - N/A   Clear
4:15 AM 30.2 °F 14.3 °F - N/A% 29.57 in - NNE 34.5 mph 41.4 mph N/A   Clear
4:27 AM 30.2 °F 13.9 °F - N/A% 29.57 in - NNE 36.8 mph 42.6 mph N/A   Clear
4:39 AM 30.2 °F 14.1 °F - N/A% 29.58 in - NNE 35.7 mph - N/A   Clear
4:51 AM 30.2 °F 14.1 °F - N/A% 29.58 in - NNE 35.7 mph 43.7 mph N/A   Clear
5:00 AM 30.2 °F 14.1 °F - N/A% 29.70 in - NNE 35.7 mph 41.4 mph N/A   Clear
5:03 AM 30.2 °F 13.7 °F - N/A% 29.58 in - NNE 38.0 mph - N/A   Clear
5:15 AM 30.2 °F 14.1 °F - N/A% 29.58 in - NNE 35.7 mph 41.4 mph N/A   Clear
5:27 AM 30.2 °F 13.3 °F - N/A% 29.58 in - NE 40.3 mph 46.0 mph N/A   Clear
5:39 AM 30.2 °F 12.9 °F - N/A% 29.58 in - NE 42.6 mph - N/A   Clear
5:51 AM 30.2 °F 14.1 °F - N/A% 29.59 in - NE 35.7 mph - N/A   Clear
6:00 AM 30.2 °F 14.9 °F - N/A% 29.72 in - NE 31.1 mph 40.3 mph N/A   Clear
6:03 AM 30.2 °F 14.3 °F - N/A% 29.59 in - NE 34.5 mph - N/A   Clear
6:15 AM 30.2 °F 14.3 °F - N/A% 29.60 in - NE 34.5 mph - N/A   Clear
6:27 AM 30.2 °F 14.5 °F - N/A% 29.61 in - NE 33.4 mph 41.4 mph N/A   Clear
6:39 AM 30.2 °F 15.2 °F - N/A% 29.62 in - NE 29.9 mph - N/A   Clear
6:51 AM 30.2 °F 14.5 °F - N/A% 29.63 in - NE 33.4 mph - N/A   Clear
7:00 AM 30.2 °F 14.9 °F - N/A% 29.75 in - NNE 31.1 mph 38.0 mph N/A   Clear
7:03 AM 30.2 °F 15.2 °F - N/A% 29.63 in - NE 29.9 mph 38.0 mph N/A   Clear
7:15 AM 30.2 °F 15.4 °F - N/A% 29.64 in - NE 28.8 mph 39.1 mph N/A   Clear
7:27 AM 30.2 °F 14.7 °F - N/A% 29.64 in - NE 32.2 mph - N/A   Clear
7:39 AM 30.2 °F 14.9 °F - N/A% 29.64 in - NE 31.1 mph 43.7 mph N/A   Clear
7:51 AM 30.2 °F 13.9 °F - N/A% 29.64 in - NE 36.8 mph - N/A   Clear
8:00 AM 30.2 °F 13.9 °F - N/A% 29.76 in - NE 36.8 mph - N/A   Clear
8:03 AM 30.2 °F 13.5 °F - N/A% 29.64 in - NE 39.1 mph - N/A   Clear
8:15 AM 30.2 °F 13.9 °F - N/A% 29.65 in - NE 36.8 mph - N/A   Clear
8:27 AM 30.2 °F 14.5 °F - N/A% 29.67 in - NE 33.4 mph - N/A   Clear
8:39 AM 30.2 °F 14.3 °F - N/A% 29.68 in - NE 34.5 mph - N/A   Clear
8:51 AM 30.2 °F 14.7 °F - N/A% 29.68 in - NE 32.2 mph - N/A   Clear
9:00 AM 30 °F - - % 29.81 in - NE 31.1 mph - -  
9:00 AM 30.2 °F 15.7 °F - N/A% 29.81 in - NNE 27.6 mph 35.7 mph N/A   Clear
9:03 AM 30.2 °F 14.5 °F - N/A% 29.69 in - NE 33.4 mph - N/A   Clear
9:15 AM 30.2 °F 14.7 °F - N/A% 29.69 in - NE 32.2 mph - N/A   Clear
9:27 AM 30.2 °F 14.3 °F - N/A% 29.69 in - NE 34.5 mph - N/A   Clear
9:39 AM 30.2 °F 14.3 °F - N/A% 29.69 in - NE 34.5 mph - N/A   Clear
9:51 AM 30.2 °F 14.1 °F - N/A% 29.69 in - NE 35.7 mph - N/A   Clear
10:00 AM 30.2 °F 14.7 °F - N/A% 29.82 in - NE 32.2 mph - N/A   Clear
10:03 AM 30.2 °F 14.7 °F - N/A% 29.70 in - NE 32.2 mph - N/A   Clear
10:11 AM 30.2 °F 15.2 °F - N/A% 29.70 in - NE 29.9 mph 35.7 mph N/A   Clear
10:14 AM 30.2 °F 14.9 °F - N/A% 29.70 in - NE 31.1 mph - N/A   Clear
10:15 AM 30.2 °F 14.7 °F - N/A% 29.70 in - NE 32.2 mph - N/A   Clear
10:27 AM 30.2 °F 15.7 °F - N/A% 29.71 in - NNE 27.6 mph 34.5 mph N/A   Clear
10:29 AM 30.2 °F 14.9 °F - N/A% 29.71 in - NNE 31.1 mph - N/A   Clear
10:35 AM 30.2 °F 15.7 °F - N/A% 29.71 in - NNE 27.6 mph 34.5 mph N/A   Clear
10:39 AM 30.2 °F 14.3 °F - N/A% 29.70 in - NNE 34.5 mph - N/A   Clear
10:51 AM 30.2 °F 13.9 °F - N/A% 29.70 in - NNE 36.8 mph - N/A   Clear
11:00 AM 30.2 °F 14.3 °F - N/A% 29.83 in - NNE 34.5 mph - N/A   Clear
11:06 AM 30.2 °F 15.2 °F - N/A% 29.71 in - NE 29.9 mph 38.0 mph N/A   Clear
11:15 AM 30.2 °F 14.7 °F - N/A% 29.71 in - NE 32.2 mph - N/A   Clear
11:27 AM 30.2 °F 14.3 °F - N/A% 29.71 in - NE 34.5 mph - N/A   Clear
11:39 AM 30.2 °F 14.1 °F - N/A% 29.71 in - NE 35.7 mph - N/A   Clear
11:51 AM 30.2 °F 14.9 °F - N/A% 29.72 in - NNE 31.1 mph 38.0 mph N/A   Clear
12:00 PM 30.2 °F 15.7 °F - N/A% 29.85 in - NNE 27.6 mph 36.8 mph N/A   Clear
12:03 PM 30.2 °F 14.9 °F - N/A% 29.72 in - NNE 31.1 mph 36.8 mph N/A   Clear
12:15 PM 30.2 °F 15.7 °F - N/A% 29.73 in - NNE 27.6 mph 34.5 mph N/A   Clear
12:35 PM 30.2 °F 15.2 °F - N/A% 29.74 in - NNE 29.9 mph - N/A   Clear
1:00 PM 30.2 °F 15.4 °F - N/A% 29.87 in - NNE 28.8 mph - N/A Snow Light Snow
1:40 PM 32.0 °F 18.4 °F - N/A% 29.75 in - NNE 26.5 mph 35.7 mph N/A   Clear
1:53 PM 32.0 °F 17.2 °F - N/A% 29.75 in - NNE 32.2 mph - N/A Snow Light Snow
2:00 PM 32.0 °F 17.4 °F - N/A% 29.88 in - NNE 31.1 mph - N/A Snow Light Snow
2:07 PM 32.0 °F 17.9 °F - N/A% 29.76 in - NE 28.8 mph - N/A   Clear
2:20 PM 32.0 °F 17.6 °F - N/A% 29.77 in - NNE 29.9 mph - N/A Snow Light Snow
3:00 PM 31 °F - - % 29.90 in - NNE 29.9 mph - -  
3:00 PM 32.0 °F 18.1 °F - N/A% 29.90 in - NNE 27.6 mph 36.8 mph N/A Snow Light Snow
3:10 PM 32.0 °F 17.6 °F - N/A% 29.78 in - NNE 29.9 mph - N/A   Clear
3:20 PM 32.0 °F 17.2 °F - N/A% 29.78 in - NNE 32.2 mph - N/A Snow Light Snow
4:00 PM 32.0 °F 18.1 °F - N/A% 29.91 in - NNE 27.6 mph 35.7 mph N/A Snow Light Snow
4:09 PM 32.0 °F 17.6 °F - N/A% 29.79 in - NNE 29.9 mph 36.8 mph N/A Snow Light Snow
4:40 PM 32.0 °F 18.4 °F - N/A% 29.80 in - North 26.5 mph 33.4 mph N/A Snow Light Snow
4:56 PM 32.0 °F 18.4 °F - N/A% 29.81 in - NNE 26.5 mph 33.4 mph N/A Snow Light Snow
5:00 PM 32.0 °F 18.4 °F - N/A% 29.93 in - NNE 26.5 mph 33.4 mph N/A Snow Light Snow
5:41 PM 32.0 °F 18.1 °F - N/A% 29.81 in - NNE 27.6 mph - N/A Snow Light Snow
6:00 PM 32.0 °F 18.6 °F - N/A% 29.94 in - NNE 25.3 mph - N/A Snow Light Snow
6:13 PM 32.0 °F 18.9 °F - N/A% 29.81 in - NNE 24.2 mph - N/A Snow Light Snow
6:35 PM 32.0 °F 18.4 °F - N/A% 29.81 in - NNE 26.5 mph 33.4 mph N/A Snow Light Snow
6:53 PM 32.0 °F 18.4 °F - N/A% 29.81 in - NNE 26.5 mph - N/A Snow Light Snow
7:00 PM 32.0 °F 18.9 °F - N/A% 29.94 in - North 24.2 mph 29.9 mph N/A Snow Light Snow
7:25 PM 32.0 °F 18.9 °F - N/A% 29.83 in - NNE 24.2 mph - N/A   Clear
7:34 PM 32.0 °F 19.2 °F - N/A% 29.83 in - NNE 23.0 mph - N/A   Clear
7:41 PM 32.0 °F 18.9 °F - N/A% 29.83 in - NNE 24.2 mph - N/A Snow Light Snow
7:48 PM 32.0 °F 19.2 °F - N/A% 29.83 in - NNE 23.0 mph 29.9 mph N/A Snow Light Snow
7:56 PM 32.0 °F 19.5 °F - N/A% 29.83 in - NNE 21.9 mph 29.9 mph N/A   Clear
8:00 PM 32.0 °F 20.5 °F - N/A% 29.95 in - NNE 18.4 mph 25.3 mph N/A   Clear
8:23 PM 32.0 °F 18.1 °F - N/A% 29.82 in - NNE 27.6 mph - N/A   Clear
8:29 PM 32.0 °F 18.6 °F - N/A% 29.83 in - NNE 25.3 mph 32.2 mph N/A   Clear
9:00 PM 31 °F - - % 29.95 in - North 26.5 mph - -  
9:00 PM 32.0 °F 18.1 °F - N/A% 29.95 in - North 27.6 mph - N/A   Clear
9:05 PM 32.0 °F 18.6 °F - N/A% 29.83 in - North 25.3 mph 32.2 mph N/A Snow Light Snow
9:20 PM 32.0 °F 18.6 °F - N/A% 29.83 in - North 25.3 mph - N/A   Clear
9:51 PM 32.0 °F 18.4 °F - N/A% 29.84 in - NNE 26.5 mph 32.2 mph N/A Snow Light Snow
10:00 PM 32.0 °F 19.2 °F - N/A% 29.96 in - NNE 23.0 mph 28.8 mph N/A Snow Light Snow
11:00 PM 32.0 °F 18.4 °F - N/A% 29.95 in - NNE 26.5 mph - N/A Snow Light Snow